This is the latest recevied weather packets stored in our database for station/object WB9TLH-11. If no packets are shown the sender has not sent any weather packets the latest 1 day(s).
| Time | Temp. | Humidity | Pressure | Rain* | Wind** | Luminosity | Snow |
|---|---|---|---|---|---|---|---|
| 1778044550 | 8.33° C | 91% | 1009.5 hPa | 1.27 mm | 0 m/s | - | - |
| 1778044250 | 8.33° C | 91% | 1009.7 hPa | 1.27 mm | 0 m/s | - | - |
| 1778043950 | 8.33° C | 91% | 1009.5 hPa | 1.52 mm | 0 m/s | - | - |
| 1778043650 | 8.33° C | 91% | 1009.4 hPa | 1.78 mm | 0 m/s | - | - |
| 1778043350 | 8.33° C | 91% | 1009.7 hPa | 1.52 mm | 0 m/s | - | - |
| 1778043050 | 8.33° C | 91% | 1009.5 hPa | 1.78 mm | 0 m/s | - | - |
| 1778042750 | 8.33° C | 91% | 1009.2 hPa | 2.03 mm | 0 m/s | - | - |
| 1778042450 | 8.33° C | 91% | 1009.1 hPa | 2.03 mm | 0 m/s | - | - |
| 1778042150 | 8.33° C | 91% | 1009 hPa | 2.03 mm | 0 m/s | - | - |
| 1778041850 | 8.33° C | 91% | 1009 hPa | 2.54 mm | 0 m/s | - | - |
| 1778041550 | 8.33° C | 91% | 1009 hPa | 3.05 mm | 0 m/s | - | - |
| 1778041250 | 8.33° C | 90% | 1009.1 hPa | 3.56 mm | 0 m/s | - | - |
| 1778040950 | 8.33° C | 90% | 1009.2 hPa | 3.81 mm | 0 m/s | - | - |
| 1778040650 | 8.33° C | 91% | 1009.1 hPa | 3.81 mm | 0 m/s | - | - |
| 1778040350 | 8.33° C | 90% | 1008.7 hPa | 3.81 mm | 0 m/s | - | - |
| 1778040050 | 8.33° C | 90% | 1008.5 hPa | 3.56 mm | 0 m/s | - | - |
| 1778039750 | 8.33° C | 90% | 1008.5 hPa | 4.06 mm | 0 m/s | - | - |
| 1778039450 | 8.33° C | 90% | 1008.2 hPa | 4.57 mm | 0 m/s | - | - |
| 1778039150 | 8.33° C | 90% | 1008.2 hPa | 4.57 mm | 0 m/s | - | - |
| 1778038850 | 8.33° C | 90% | 1009.1 hPa | 4.57 mm | 0 m/s | - | - |
| 1778038550 | 8.33° C | 90% | 1009.1 hPa | 4.83 mm | 0 m/s | - | - |
| 1778038250 | 8.33° C | 90% | 1009 hPa | 4.83 mm | 0 m/s | - | - |
| 1778037950 | 8.33° C | 91% | 1009.3 hPa | 4.83 mm | 0 m/s | - | - |
| 1778037650 | 8.33° C | 90% | 1009.4 hPa | 4.83 mm | 0 m/s | - | - |
| 1778037350 | 8.33° C | 90% | 1009.5 hPa | 5.08 mm | 0 m/s | - | - |
* Rain latest hour (hover to see other rain measurements)
** Current wind speed in m/s (hover to see current wind gust speed)